CW9887 Weather Reports


Display with metric or nautical units.
time (UTC)temp
F
wind
direction
speed
MPH
gust
MPH
rain 1hr
in
rain 24hr
in
rain mn
in
humidity
%
barometer
mb
20260507000354 58 250 3.0 0.0 0.00 0.00 0.18 100 1003.1
20260507000013 57 236 3.0 0.0 0.00 0.00 0.18 100 1002.8
20260506234605 57 246 3.0 0.0 0.00 0.00 0.17 100 1002.6
20260506233348 58 196 3.0 0.0 0.00 0.00 0.17 100 1003.0
20260506233050 57 287 4.0 0.0 0.00 0.00 0.17 100 1002.7
20260506231848 58 267 4.0 0.0 0.00 0.00 0.17 99 1002.9
20260506231531 58 248 4.0 0.0 0.00 0.00 0.17 99 1002.7
20260506230349 58 235 3.0 0.0 0.00 0.00 0.17 99 1002.9
20260506230048 58 200 3.0 0.0 0.00 0.00 0.17 99 1002.7
20260506224845 59 272 3.0 0.0 0.00 0.00 0.17 99 1002.9
20260506224548 58 192 3.0 0.0 0.00 0.00 0.17 99 1002.7
20260506223345 59 196 3.0 0.0 0.00 0.00 0.17 99 1003.0
20260506223049 58 154 4.0 0.0 0.00 0.00 0.17 99 1002.7
20260506221842 59 203 3.0 0.0 0.00 0.00 0.17 99 1002.9
20260506221544 59 188 3.0 0.0 0.00 0.00 0.17 99 1002.6
20260506220046 59 215 4.0 0.0 0.00 0.00 0.17 99 1002.8
20260506214843 59 207 3.0 0.0 0.00 0.00 0.17 99 1003.1
20260506214557 59 217 3.0 0.0 0.00 0.00 0.17 99 1002.8
20260506213355 59 190 4.0 0.0 0.00 0.00 0.17 99 1003.1
20260506213051 59 263 3.0 0.0 0.00 0.00 0.17 99 1002.8
20260506211848 60 213 3.0 0.0 0.00 0.00 0.17 99 1003.3
20260506211547 59 203 3.0 0.0 0.00 0.00 0.17 99 1003.0
20260506210347 59 188 3.0 0.0 0.00 0.00 0.17 99 1003.3
20260506210042 59 197 3.0 0.0 0.00 0.00 0.17 99 1003.1
20260506204839 59 195 4.0 0.0 0.00 0.00 0.17 99 1003.3
20260506204512 59 213 3.0 0.0 0.00 0.00 0.17 99 1003.0
20260506203052 59 229 3.0 0.0 0.00 0.00 0.17 99 1003.2
20260506201847 59 202 2.0 0.0 0.00 0.00 0.16 99 1003.6
20260506201553 59 186 2.0 0.0 0.00 0.00 0.16 99 1003.4
20260506200345 59 192 2.0 0.0 0.00 0.00 0.16 99 1004.0
20260506200112 59 178 1.0 0.0 0.00 0.00 0.16 99 1003.6
20260506194855 59 202 2.0 0.0 0.00 0.00 0.16 99 1004.0
20260506194611 59 213 2.0 0.0 0.00 0.00 0.15 99 1003.7
20260506193351 59 281 2.0 0.0 0.00 0.00 0.14 98 1004.1
20260506193046 59 253 2.0 0.0 0.00 0.00 0.13 98 1003.8
20260506191843 59 182 2.0 0.0 0.00 0.00 0.11 98 1004.2
20260506191546 59 241 2.0 0.0 0.00 0.00 0.11 98 1003.7
20260506190343 59 210 4.0 0.0 0.00 0.00 0.10 98 1004.4
20260506190047 59 196 3.0 0.0 0.00 0.00 0.10 98 1003.9
20260506184844 59 210 3.0 0.0 0.00 0.00 0.09 97 1004.7
20260506184544 59 215 3.0 0.0 0.00 0.00 0.08 97 1004.3
20260506183340 60 235 3.0 0.0 0.00 0.00 0.08 97 1004.9
20260506183002 59 206 3.0 0.0 0.00 0.00 0.08 97 1004.6
20260506181858 60 234 3.0 0.0 0.00 0.00 0.08 97 1005.1
20260506181547 59 208 3.0 0.0 0.00 0.00 0.07 97 1004.7
20260506180357 60 259 3.0 0.0 0.00 0.00 0.06 96 1005.4
20260506180056 59 230 3.0 0.0 0.00 0.00 0.06 96 1005.0
20260506174854 60 207 3.0 0.0 0.00 0.00 0.04 95 1005.5
20260506174602 60 244 3.0 0.0 0.00 0.00 0.04 95 1005.0
20260506173354 61 268 2.0 0.0 0.00 0.00 0.02 94 1005.5
20260506173015 61 209 2.0 0.0 0.00 0.00 0.02 93 1005.1
20260506171543 61 288 2.0 0.0 0.00 0.00 0.01 90 1005.0
20260506170353 63 262 2.0 0.0 0.00 0.00 0.00 87 1005.4
20260506170016 63 262 2.0 0.0 0.00 0.00 0.00 86 1004.8
20260506164514 64 261 3.0 0.0 0.00 0.00 0.00 84 1005.0
20260506163055 64 257 3.0 0.0 0.00 0.00 0.00 82 1005.0
20260506161849 65 196 3.0 0.0 0.00 0.00 0.00 83 1005.7
20260506161539 64 205 2.0 0.0 0.00 0.00 0.00 83 1005.2
20260506160355 64 171 2.0 0.0 0.00 0.00 0.00 86 1006.1
20260506160057 63 228 2.0 0.0 0.00 0.00 0.00 85 1005.7
20260506154853 64 216 2.0 0.0 0.00 0.00 0.00 85 1006.5
20260506154554 63 213 2.0 0.0 0.00 0.00 0.00 84 1006.1
20260506153349 63 232 3.0 0.0 0.00 0.00 0.00 83 1007.0
20260506153053 63 269 3.0 0.0 0.00 0.00 0.00 83 1006.4
20260506151851 63 211 3.0 0.0 0.00 0.00 0.00 83 1006.7
20260506151542 63 282 3.0 0.0 0.00 0.00 0.00 83 1006.4
20260506150351 63 255 3.0 0.0 0.00 0.00 0.00 83 1007.0
20260506150049 63 261 4.0 0.0 0.00 0.00 0.00 83 1006.4
20260506144847 63 236 3.0 0.0 0.00 0.00 0.00 84 1006.6
20260506144549 63 193 3.0 0.0 0.00 0.00 0.00 84 1006.3
20260506143347 63 183 2.0 0.0 0.00 0.00 0.00 86 1007.0
20260506143053 62 254 1.0 0.0 0.00 0.00 0.00 85 1006.4
20260506141843 61 182 2.0 0.0 0.00 0.00 0.00 86 1006.9
20260506141545 61 182 2.0 0.0 0.00 0.00 0.00 86 1006.4
20260506140018 60 214 1.0 0.0 0.00 0.00 0.00 87 1006.4
20260506134916 60 204 2.0 0.0 0.00 0.00 0.00 87 1006.8
20260506134551 59 205 2.0 0.0 0.00 0.00 0.00 87 1006.3
20260506133421 60 234 1.0 0.0 0.00 0.00 0.00 86 1007.2
20260506133052 59 236 1.0 0.0 0.00 0.00 0.00 87 1006.9
20260506131849 60 196 1.0 0.0 0.00 0.00 0.00 87 1007.5
20260506131531 59 196 1.0 0.0 0.00 0.00 0.00 88 1007.0
20260506130354 59 236 2.0 0.0 0.00 0.00 0.00 87 1007.4
20260506130110 59 209 2.0 0.0 0.00 0.00 0.00 87 1006.8
20260506124850 59 191 2.0 0.0 0.00 0.00 0.00 86 1007.4
20260506124548 59 200 3.0 0.0 0.00 0.00 0.00 86 1007.0
20260506123346 59 223 2.0 0.0 0.00 0.00 0.00 86 1007.3
20260506123049 59 165 2.0 0.0 0.00 0.00 0.00 86 1006.7
20260506121846 59 203 1.0 0.0 0.00 0.00 0.00 87 1007.3
20260506121528 58 258 2.0 0.0 0.00 0.00 0.00 87 1006.8
20260506120047 58 197 2.0 0.0 0.00 0.00 0.00 87 1006.9
20260506114847 58 155 1.0 0.0 0.00 0.00 0.00 87 1007.7
20260506114548 57 155 1.0 0.0 0.00 0.00 0.00 87 1007.1
20260506113346 58 155 1.0 0.0 0.00 0.00 0.00 87 1007.5
20260506113049 57 155 1.0 0.0 0.00 0.00 0.00 87 1007.1
20260506111843 57 155 2.0 0.0 0.00 0.00 0.00 86 1007.5
20260506111545 57 155 1.0 0.0 0.00 0.00 0.00 86 1007.0
20260506110344 57 167 1.0 0.0 0.00 0.00 0.00 87 1007.5
20260506110051 57 167 1.0 0.0 0.00 0.00 0.00 87 1007.0
20260506104843 57 170 2.0 0.0 0.00 0.00 0.00 86 1007.5
20260506104541 57 197 2.0 0.0 0.00 0.00 0.00 86 1007.0
20260506103340 58 197 2.0 0.0 0.00 0.00 0.00 85 1007.7
20260506103047 57 199 2.0 0.0 0.00 0.00 0.00 85 1007.1
20260506101840 58 271 2.0 0.0 0.00 0.00 0.00 85 1007.8
20260506101552 57 234 2.0 0.0 0.00 0.00 0.00 85 1007.1
20260506100340 57 207 1.0 0.0 0.00 0.00 0.00 85 1007.6
20260506100039 56 209 1.0 0.0 0.00 0.00 0.00 86 1007.0
20260506094838 57 267 0.0 0.0 0.00 0.00 0.00 86 1007.4
20260506094547 56 273 0.0 0.0 0.00 0.00 0.00 86 1006.8
20260506093338 57 272 0.0 0.0 0.00 0.00 0.00 85 1007.6
20260506093105 56 272 0.0 0.0 0.00 0.00 0.00 85 1007.0
20260506091855 57 273 0.0 0.0 0.00 0.00 0.00 85 1007.4
20260506091537 57 273 0.0 0.0 0.00 0.00 0.00 85 1006.7
20260506090356 57 273 0.0 0.0 0.00 0.00 0.00 85 1007.3
20260506084856 58 273 1.0 0.0 0.00 0.00 0.00 84 1007.3
20260506084555 57 273 2.0 0.0 0.00 0.00 0.00 84 1007.0
20260506083352 58 270 2.0 0.0 0.00 0.00 0.00 83 1007.6
20260506083053 57 269 2.0 0.0 0.00 0.00 0.00 83 1007.1
20260506081850 58 259 2.0 0.0 0.00 0.00 0.00 83 1007.6
20260506081532 58 261 2.0 0.0 0.00 0.00 0.00 83 1007.0
20260506080356 59 248 1.0 0.0 0.00 0.00 0.00 82 1007.6
20260506073058 59 221 2.0 0.0 0.00 0.00 0.00 82 1007.1
20260506071851 60 215 2.0 0.0 0.00 0.00 0.00 81 1007.2
20260506071543 59 221 2.0 0.0 0.00 0.00 0.00 81 1006.8
20260506070352 60 226 2.0 0.0 0.00 0.00 0.00 82 1007.4
20260506061845 60 208 2.0 0.0 0.00 0.00 0.00 82 1007.3
20260506061528 60 205 2.0 0.0 0.00 0.00 0.00 82 1006.8
20260506060351 60 89 0.0 0.0 0.00 0.00 0.00 84 1007.2
20260506050355 61 255 2.0 0.0 0.00 0.00 0.00 83 1007.1
20260506044855 61 272 2.0 0.0 0.00 0.00 0.00 84 1007.3
20260506044540 61 202 2.0 0.0 0.00 0.00 0.00 84 1006.8
20260506043338 61 189 2.0 0.0 0.00 0.00 0.00 84 1007.2
20260506043021 61 237 2.0 0.0 0.00 0.00 0.00 85 1006.7
20260506041556 60 233 2.0 0.0 0.00 0.00 0.00 87 1006.6
20260506040342 61 258 1.0 0.0 0.00 0.00 0.00 88 1007.2
20260506040007 60 252 1.0 0.0 0.00 0.00 0.00 88 1006.6
20260506034554 60 207 2.0 0.0 0.00 0.00 0.02 88 1006.6
20260506033348 61 225 1.0 0.0 0.00 0.00 0.02 88 1007.1
20260506033055 60 213 1.0 0.0 0.00 0.00 0.02 88 1006.6
20260506031851 61 248 2.0 0.0 0.00 0.00 0.02 89 1007.0
20260506031538 60 182 2.0 0.0 0.00 0.00 0.02 89 1006.5
20260506030354 60 265 2.0 0.0 0.00 0.00 0.02 90 1007.1
20260506030057 60 265 2.0 0.0 0.00 0.00 0.02 89 1006.6
20260506024543 60 261 1.0 0.0 0.00 0.00 0.02 88 1006.7
20260506023340 61 261 1.0 0.0 0.00 0.00 0.02 87 1007.0
20260506023043 60 261 1.0 0.0 0.00 0.00 0.02 87 1006.6
20260506021840 61 261 2.0 0.0 0.00 0.00 0.02 86 1007.1
20260506021553 61 261 1.0 0.0 0.00 0.00 0.02 85 1006.6
20260506020052 61 240 0.0 0.0 0.00 0.00 0.02 84 1006.3
20260506014850 63 241 1.0 0.0 0.00 0.00 0.02 83 1007.1
20260506014556 62 248 1.0 0.0 0.00 0.00 0.02 83 1006.7
20260506013350 63 215 1.0 0.0 0.00 0.00 0.02 81 1007.0
20260506013051 62 221 1.0 0.0 0.00 0.00 0.02 81 1006.5
20260506011850 63 267 0.0 0.0 0.00 0.00 0.02 81 1007.0
20260506011541 62 267 0.0 0.0 0.00 0.00 0.02 82 1006.6
20260506010337 62 267 0.0 0.0 0.00 0.00 0.02 83 1006.9
20260506010104 62 267 0.0 0.0 0.00 0.00 0.02 83 1006.5
20260506004857 62 267 1.0 0.0 0.00 0.00 0.02 85 1006.9
20260506004544 62 267 2.0 0.0 0.00 0.00 0.02 85 1006.5
20260506003339 62 246 1.0 0.0 0.00 0.00 0.02 82 1006.8
20260506003041 62 246 1.0 0.0 0.00 0.00 0.02 82 1006.2
20260506001839 63 246 0.0 0.0 0.00 0.00 0.02 81 1006.5
20260506001606 62 246 0.0 0.0 0.00 0.00 0.02 81 1006.0